AirNav   Pilot Hours Calculator
 
 608 users online  

3J6 Davis Field Airport
Folkston, Georgia, USA

GOING TO FOLKSTON?


FAA INFORMATION EFFECTIVE 07 OCTOBER 2021

Location

FAA Identifier: 3J6
Lat/Long: 30-47-46.9000N 082-01-41.4000W
30-47.781667N 082-01.690000W
30.7963611,-82.0281667
(estimated)
Elevation: 68 ft. / 21 m (estimated)
Variation: 03W (1985)
From city: 3 miles SW of FOLKSTON, GA
Time zone: UTC -4 (UTC -5 during Standard Time)
Zip code: 31537

Airport Operations

Airport use: Open to the public
Activation date: 11/1962
Control tower: no
ARTCC: JACKSONVILLE CENTER
FSS: MACON FLIGHT SERVICE STATION
NOTAMs facility: MCN (NOTAM-D service available)
Attendance: UNATNDD
Wind indicator: lighted
Segmented circle: yes
Lights: MIRL RWY 01/19 PRESET LOW INTST DUSK-2030; AFT 2030 ACTVT - CTAF.
Beacon: white-green (lighted land airport)
Operates sunset to sunrise.

Airport Communications

CTAF: 122.9

Nearby radio navigation aids

VOR radial/distance  VOR name  Freq  Var
TAYr060/32.2TAYLOR VORTAC112.9003W
SSIr247/33.6BRUNSWICK VORTAC109.8004W
CRGr319/38.3CRAIG VORTAC114.5003W
AYSr136/39.3WAYCROSS VORTAC110.2000E

Airport Services

Parking: tiedowns
Airframe service: NONE
Powerplant service: NONE
Bottled oxygen: NONE
Bulk oxygen: NONE

Runway Information

Runway 1/19

Dimensions: 2500 x 50 ft. / 762 x 15 m
Surface: asphalt, in good condition
Weight bearing capacity: 
Single wheel: 12.5
Runway edge lights: medium intensity
RUNWAY 1  RUNWAY 19
Latitude: 30-47.575833N30-47.988333N
Longitude: 082-01.694833W082-01.685000W
Traffic pattern: rightleft
Markings: basic, in good conditionbasic, in good condition
Obstructions: 42 ft. trees, 201 ft. from runway, 100 ft. left and right of centerline
+50 FT TREES 90 FT LEFT & RIGHT AT THLD
19 ft. trees, 580 ft. from runway, 100 ft. left of centerline, 20:1 slope to clear

Airport Ownership and Management from official FAA records

Ownership: Publicly-owned
Owner: CHARLTON COUNTY
68 KINGSLAND DR. STE B
FOLKSTON, GA 31537
Phone 912-496-2549
Manager: HAMPTON RAULERSON
68 KINSLAND DR., STE B
FOLKSTON, GA 31537
Phone (912) 886-3260

Airport Operational Statistics

Aircraft based on the field: 8
Single engine airplanes: 8
    
Aircraft operations: avg 61/week *
62% local general aviation
31% transient general aviation
6% military
* for 12-month period ending 31 December 2019

Additional Remarks

LGTD 272 FT AGL TOWER 1000 FT WEST.
FOR CD CTC JACKSONVILLE APCH AT 904-741-0284.

Instrument Procedures

There are no published instrument procedures at 3J6.

Some nearby airports with instrument procedures:

KJAX - Jacksonville International Airport (25 nm SE)
4J1 - Brantley County Airport (25 nm N)
KFHB - Fernandina Beach Municipal Airport (31 nm E)
KAYS - Waycross-Ware County Airport (33 nm NW)
KHEG - Herlong Recreational Airport (33 nm S)
 
Loc | Ops | Rwys | IFR | FBO | Links
Com | Nav | Svcs | Stats | Notes
Area around 3J6 (Davis Field Airport)
 
Road maps at: MapQuest Bing Google
 
Aerial photo
WARNING: Photo may not be current or correct
Aerial photo of 3J6 (Davis Field Airport)
Do you have a better or more recent aerial photo of Davis Field Airport that you would like to share? If so, please send us your photo.

 
Sectional chart

 
Airport distance calculator
Flying to Davis Field Airport? Find the distance to fly.

From to 3J6

Sunrise and sunset
Times for 25-Oct-2021
 Local
(UTC-4)
 Zulu
(UTC)
Morning civil twilight07:1411:14
Sunrise07:3911:39
Sunset18:4622:46
Evening civil twilight19:1023:10

Current date and time
Zulu (UTC)  25-Oct-2021 11:25:46
Local (UTC-4)  25-Oct-2021 07:25:46
 
METAR
KJAX 
25nm SE 
251056Z 29006KT 3SM RA BR SCT008 SCT015 OVC022 22/22 A2994 RMK AO2 SLP138 P0016 T02220222
KFHB 
31nm E 
251055Z AUTO 00000KT 5SM -RA BR BKN013 OVC017 23/23 A2994 RMK AO2 P0001 T02320226
KHEG 
33nm S 
251035Z AUTO 00000KT 23/23 A2997 RMK AO2
KAYS 
33nm NW 
251055Z AUTO 00000KT 5SM BR SCT001 OVC055 21/21 A2996 RMK AO2 T02110205
KVQQ 
36nm S 
251050Z 25005KT 6SM BR OVC007 23/23 A2995
KCRG 
38nm SE 
251053Z 24005KT 10SM BKN050 OVC060 24/22 A2994 RMK AO2 SLP138 T02390222
KSSI 
39nm NE 
251053Z AUTO 00000KT 4SM RA BR BKN015 OVC038 23/23 A2994 RMK AO2 RAB09 SLP140 P0004 T02330233
KNIP 
39nm SE 
251053Z 23007KT 10SM BKN010 OVC070 23/23 A2995 RMK AO2 SLP138 T02280228 $
KBQK 
40nm NE 
251055Z AUTO 00000KT 10SM -RA BKN012 OVC024 22/22 A2995 RMK AO2 P0002 T02170215
KNRB 
40nm SE 
251052Z 21004KT 10SM FEW028 OVC070 23/23 A2993 RMK AO2 SLP136 T02330228
TAF
KJAX 
25nm SE 
250835Z 2509/2606 VRB03KT P6SM VCSH SCT015 OVC080 FM251500 25008KT P6SM VCSH SCT015 OVC035 FM251800 28010KT P6SM SCT025 BKN050 FM252300 24005KT P6SM SCT100
NOTAMs
Click for the latest NOTAMs
NOTAMs are issued by the DoD/FAA and will open in a separate window not controlled by AirNav.

 

 
 

Would you like to see your business listed on this page?

 If your business provides an interesting product or service to pilots, flight crews, aircraft, or users of the Davis Field Airport, you should consider listing it here.  To start the listing process, click on the button below
 
Add a business
 

Other Pages about Davis Field Airport

Update a link
 
Copyright © AirNav, LLC. All rights reserved. Privacy Policy  Contact